User: anonymous   Login
Location: Unspecified
(0.0000°N, 0.0000°E)
Time: 21:48:28
(UTC+00:00)
Language:

GONETS M 11 (M21) - Orbit

View from above orbital plane
View from above orbital plane
View from above satellite
View from above satellite

Ground track
Ground track

The orbit data is extracted from the following two-line orbital elements,

1 40552U 15020A   17117.74715777 +.00000010 +00000-0 +00000-0 0  9997
2 40552 082.4845 310.4215 0017067 081.1143 279.1868 12.42899418094174
Epoch (UTC): 27 April 2017 17:55:54
Eccentricity: 0.0017067
inclination: 82.4845°
perigee height: 1481 km
apogee height: 1508 km
right ascension of ascending node: 310.4215°
argument of perigee: 81.1143°
revolutions per day: 12.42899418
mean anomaly at epoch: 279.1868°
orbit number at epoch: 9417

The dashed part of the orbit path shows where the satellite is in the earth's shadow,  

DLR